| time (UTC) | temp F | wind direction | speed MPH | gust MPH | rain 1hr in | rain 24hr in | rain mn in | humidity % | barometer mb |
| 20260505152104 | 78 | 200 | 3.0 | 3.0 | 0.00 | 0.00 | 0.00 | 80 | 1006.0 |
| 20260505122050 | 71 | 171 | 9.0 | 13.0 | 0.00 | 0.00 | 0.00 | 90 | 1004.7 |
| 20260505115045 | 71 | 198 | 1.0 | 1.0 | 0.00 | 0.00 | 0.00 | 90 | 1004.9 |
| 20260505112044 | 71 | 187 | 3.0 | 3.0 | 0.00 | 0.00 | 0.00 | 90 | 1004.6 |
| 20260505102039 | 71 | 158 | 2.0 | 5.0 | 0.00 | 0.00 | 0.00 | 89 | 1004.6 |
| 20260505095037 | 72 | 189 | 4.0 | 6.0 | 0.00 | 0.00 | 0.00 | 88 | 1004.9 |
| 20260505092037 | 71 | 169 | 3.0 | 5.0 | 0.00 | 0.00 | 0.00 | 89 | 1005.1 |
| 20260505085033 | 71 | 188 | 4.0 | 7.0 | 0.00 | 0.00 | 0.00 | 89 | 1005.2 |
| 20260505082033 | 71 | 173 | 5.0 | 7.0 | 0.00 | 0.00 | 0.00 | 89 | 1005.5 |
| 20260505075030 | 71 | 276 | 3.0 | 3.0 | 0.00 | 0.00 | 0.00 | 89 | 1005.6 |
| 20260505072029 | 71 | 182 | 5.0 | 7.0 | 0.00 | 0.00 | 0.00 | 87 | 1006.1 |
| 20260505065025 | 72 | 211 | 4.0 | 5.0 | 0.00 | 0.00 | 0.00 | 86 | 1006.1 |
| 20260505062025 | 73 | 174 | 8.0 | 11.0 | 0.00 | 0.00 | 0.00 | 84 | 1006.5 |
| 20260505055024 | 73 | 211 | 2.0 | 2.0 | 0.00 | 0.00 | 0.00 | 83 | 1006.6 |
| 20260505052019 | 73 | 184 | 2.0 | 2.0 | 0.00 | 0.00 | 0.00 | 81 | 1006.7 |
| 20260505035010 | 74 | 215 | 1.0 | 2.0 | 0.00 | 0.00 | 0.00 | 77 | 1006.9 |
| 20260505032010 | 74 | 165 | 2.0 | 3.0 | 0.00 | 0.00 | 0.00 | 77 | 1007.0 |
| 20260505025009 | 75 | 195 | 2.0 | 2.0 | 0.00 | 0.00 | 0.00 | 75 | 1007.1 |
| 20260505022010 | 75 | 155 | 2.0 | 3.0 | 0.00 | 0.00 | 0.00 | 74 | 1006.8 |
| 20260505015006 | 76 | 168 | 2.0 | 3.0 | 0.00 | 0.00 | 0.00 | 73 | 1006.9 |
| 20260505012000 | 76 | 169 | 6.0 | 9.0 | 0.00 | 0.00 | 0.00 | 72 | 1006.8 |
| 20260505004957 | 77 | 163 | 4.0 | 7.0 | 0.00 | 0.00 | 0.00 | 70 | 1006.9 |
| 20260505001956 | 78 | 183 | 4.0 | 6.0 | 0.00 | 0.00 | 0.00 | 69 | 1006.9 |
| 20260504234956 | 78 | 186 | 6.0 | 9.0 | 0.00 | 0.00 | 0.00 | 67 | 1007.1 |
| 20260504231954 | 79 | 202 | 2.0 | 2.0 | 0.00 | 0.00 | 0.00 | 66 | 1007.3 |
| 20260504224953 | 80 | 163 | 2.0 | 3.0 | 0.00 | 0.00 | 0.00 | 64 | 1007.5 |
| 20260504221952 | 80 | 201 | 5.0 | 6.0 | 0.00 | 0.00 | 0.00 | 64 | 1007.7 |
| 20260504214950 | 81 | 188 | 5.0 | 6.0 | 0.00 | 0.00 | 0.00 | 63 | 1008.1 |
| 20260504211948 | 82 | 161 | 6.0 | 9.0 | 0.00 | 0.00 | 0.00 | 61 | 1008.7 |
| 20260504204942 | 80 | 176 | 4.0 | 6.0 | 0.00 | 0.00 | 0.00 | 63 | 1009.1 |
| 20260504201937 | 80 | 130 | 7.0 | 9.0 | 0.00 | 0.00 | 0.00 | 61 | 1009.8 |
| 20260504194936 | 81 | 152 | 10.0 | 14.0 | 0.00 | 0.00 | 0.00 | 59 | 1010.5 |
| 20260504191931 | 80 | 148 | 8.0 | 9.0 | 0.00 | 0.00 | 0.00 | 58 | 1010.9 |
| 20260504184927 | 79 | 167 | 3.0 | 5.0 | 0.00 | 0.00 | 0.00 | 58 | 1011.0 |
| 20260504181926 | 80 | 188 | 7.0 | 9.0 | 0.00 | 0.00 | 0.00 | 57 | 1011.4 |
| 20260504174924 | 79 | 186 | 7.0 | 8.0 | 0.00 | 0.00 | 0.00 | 55 | 1012.0 |
| 20260504171922 | 77 | 150 | 3.0 | 3.0 | 0.00 | 0.00 | 0.00 | 54 | 1012.2 |